Location: Brede
(50.9167°N, 0.6000°E)
Time: 05:34:13
(UTC+00:00)

Daily predictions for brighter satellites

Satellite Brightness Start Highest point End
(mag) Time Altitude Azimuth Time Altitude Azimuth Time Altitude Azimuth
SL-24 DEB 4.2 00:01:09 10° N 00:05:58 79° W 00:06:39 64° SSW
SL-16 R/B 4.3 00:01:39 10° NNW 00:06:10 23° NE 00:10:40 10° E
COSMOS 2487 3.1 00:10:12 53° NNW 00:10:12 53° NNW 00:13:08 10° NNE
Cosmos 1025 Rocket 4.3 00:07:19 10° N 00:11:10 31° ENE 00:12:12 27° E
NOSS 0 Rocket 4.2 00:06:25 10° NNW 00:12:40 68° NE 00:15:54 30° SE
Cosmos 1733 Rocket 4.3 00:11:54 29° W 00:12:50 32° WNW 00:16:50 10° N
CZ-4 R/B 4.3 00:08:46 10° NNE 00:13:38 51° E 00:14:24 47° SE
NOSS 3-2 (C) 4.4 00:08:18 10° WSW 00:14:06 49° NNW 00:20:51 10° NE
CZ-2D R/B 4.3 00:11:03 10° NE 00:14:15 16° E 00:16:30 13° ESE
COSMOS 2428 2.6 00:09:35 10° NNW 00:15:21 82° WSW 00:16:52 51° SSE
Cosmos 1536 4.5 00:14:49 23° W 00:15:33 24° WNW 00:18:52 10° NNW
Cosmos 2360 Rocket 3.2 00:12:14 10° NW 00:17:07 30° WSW 00:17:41 30° WSW
Lacrosse 4 Rocket 1.3 00:17:22 81° ESE 00:17:22 81° ESE 00:21:34 10° NE
Lacrosse 5 3.8 00:14:41 10° W 00:16:28 16° W 00:16:28 16° W
Cosmos 1544 3.3 00:20:04 67° NNW 00:20:04 67° NNW 00:23:21 10° N
Cosmos 1503 Rocket 4.1 00:21:17 54° SSE 00:22:16 65° ESE 00:27:36 10° NNE
Cosmos 1743 3.6 00:27:18 40° WNW 00:27:24 40° WNW 00:31:07 10° N
Meteor 2-9 Rocket 4.1 00:27:29 53° S 00:28:51 80° E 00:34:34 10° NNE
Cosmos 1486 Rocket 4.1 00:27:50 49° SW 00:29:10 71° WNW 00:34:24 10° NNE
Cosmos 1271 Rocket 4.1 00:26:13 10° NNW 00:29:00 29° WNW 00:29:00 29° WNW
Cosmos 1782 Rocket 3.3 00:30:21 77° SSW 00:30:39 86° WNW 00:35:00 10° N
Cosmos 1980 4.0 00:26:14 10° NNW 00:31:54 64° ENE 00:34:48 29° SE
Cosmos 2297 Rocket 3.6 00:30:52 22° ESE 00:32:09 24° ESE 00:36:33 10° NE
Cosmos 2219 4.4 00:32:41 26° SE 00:33:53 28° ESE 00:38:33 10° NE
Cosmos 2333 Rocket 2.5 00:29:14 10° NW 00:34:49 51° WSW 00:35:43 46° SW
Cosmos 1464 Rocket 3.9 00:34:33 46° S 00:36:36 89° WNW 00:42:51 10° N
ERBS 3.2 00:35:01 10° NW 00:38:13 46° NNE 00:38:34 44° NE
Cosmos 1908 Rocket 4.2 00:38:26 40° W 00:39:02 42° WNW 00:43:13 10° N
Cosmos 2237 Rocket 2.4 00:36:02 10° NNW 00:41:43 70° ENE 00:44:32 30° SE
Cosmos 1975 3.0 00:41:49 58° W 00:41:55 58° WNW 00:45:55 10° N
Cosmos 1437 3.9 00:41:46 10° N 00:43:59 38° NNE 00:43:59 38° NNE
Helios 1B rocket 2.2 00:49:04 10° NNE 00:53:11 87° ESE 00:53:28 77° S
Nadezhda 4 Rocket 4.0 00:50:28 10° NNW 00:56:46 73° W 00:58:57 43° SSW
Cosmos 1538 Rocket 4.1 00:52:35 10° NNW 00:57:46 72° ENE 00:59:58 35° SE
In-Cosmos 22 4.2 00:53:24 10° N 00:59:04 79° ENE 01:01:07 40° SSE
ATLAS 3B R/B 3.1 00:54:42 20° WSW 00:59:15 57° NW 01:05:53 10° NE
CZ-4C R/B 4.5 01:00:00 28° E 01:00:55 32° ENE 01:04:08 10° N
Cosmos 1975 Rocket 3.9 00:58:13 10° NNW 01:02:21 36° W 01:02:34 36° W
Okean 2 Rocket 3.0 01:02:15 63° S 01:02:57 83° E 01:07:29 10° NNE
SL-16 R/B 2.9 00:59:59 23° SE 01:04:00 64° ENE 01:10:12 10° NNW
Cosmos 1707 2.8 01:00:22 10° NNW 01:04:13 66° W 01:04:13 66° W
Cosmos 2034 Rocket 4.0 01:02:10 42° SSW 01:04:26 79° W 01:10:48 10° N
Cosmos 773 Rocket 3.9 01:01:07 10° NNW 01:06:15 68° WSW 01:07:22 52° SSW
FALCON 9 DEB 3.5 01:08:43 38° WNW 01:09:50 65° N 01:13:18 10° E
Cosmos 1092 Rocket 3.9 01:03:43 10° N 01:10:01 89° W 01:12:40 37° S
Sich 1 Rocket 3.8 01:10:51 49° WSW 01:11:32 54° WNW 01:15:52 10° N
Resurs 1-4 Rocket 2.9 01:07:19 10° NNE 01:12:19 41° E 01:14:25 29° SE
Meteor 1-12 Rocket 4.3 01:11:31 42° S 01:13:42 89° E 01:19:45 10° NNE
PSLV R/B 4.4 01:09:29 10° N 01:13:54 45° WNW 01:15:06 37° WSW
Cosmos 1300 Rocket 3.4 01:13:42 63° SSW 01:14:21 82° W 01:18:41 10° N
Iridium 51 4.3 01:14:56 10° N 01:19:20 88° W 01:19:58 64° S
Okean 1 Rocket 3.9 01:18:56 34° SE 01:20:11 43° E 01:24:19 10° NNE
Cosmos 1674 2.9 01:17:17 10° N 01:20:59 61° ENE 01:21:38 51° SE
Cosmos 2227 Rocket 2.8 01:19:04 33° SSE 01:21:03 45° ESE 01:26:26 10° NE
DELTA 2 DEB (DPAF) 4.0 01:25:26 50° S 01:26:34 83° WSW 01:31:03 10° NNW
UNK 3.7 01:27:35 38° SSE 01:29:22 82° ENE 01:34:05 10° NNW
Cosmos 2151 Rocket 3.6 01:33:15 51° SW 01:34:13 69° WNW 01:38:38 10° N
Cosmos 44 Rocket 4.4 01:31:12 10° WNW 01:34:55 28° WSW 01:34:55 28° WSW
Cosmos 2219 Rocket 3.6 01:32:12 10° NW 01:36:15 20° W 01:36:25 20° WSW
CENTAUR R/B 4.3 01:30:56 10° WNW 01:37:02 34° NNW 01:44:03 10° NE
USA 267 3.6 01:33:33 10° E 01:40:02 68° NNE 01:46:32 10° WNW
Cosmos 1680 Rocket 4.0 01:35:25 10° NNW 01:40:38 60° ENE 01:45:47 10° SE
SJ 16-02 2.6 01:40:06 24° SE 01:41:47 32° ESE 01:45:45 10° NE
Spot 1 4.2 01:41:57 47° SW 01:42:26 50° W 01:46:26 10° NNW
Cosmos 2344 4.4 01:34:16 10° NW 01:43:35 67° SW 01:56:32 10° SSE
SL-19 R/B 4.4 01:38:05 10° NNE 01:44:07 73° WNW 01:46:42 34° SW
DNEPR-1 R/B 4.0 01:40:53 10° NW 01:46:50 67° SW 01:49:48 24° SSE
Timation 2 Rocket 4.0 01:44:08 32° SW 01:47:08 72° NW 01:53:11 10° NNE
Cosmos 1025 Rocket 4.0 01:44:58 10° NNW 01:48:44 30° W 01:49:04 30° W
Meteor 1-29 4.0 01:46:52 10° N 01:49:59 32° WNW 01:50:21 31° W
IRAS Rocket 4.3 01:48:37 33° S 01:51:01 61° WSW 01:56:34 10° NNW
SL-16 R/B 2.2 01:45:23 10° NNW 01:51:07 87° ENE 01:56:46 10° SSE
SL-4 R/B 3.4 01:54:33 19° SE 01:54:33 19° SE 01:55:41 10° SE
Meteor 1-24 Rocket 3.8 01:49:13 10° N 01:54:45 72° ENE 01:58:47 18° SSE
Cosmos 1777 Rocket 4.1 01:52:38 35° SW 01:54:50 67° WNW 02:00:09 10° NNE
CZ-2D R/B 2.2 01:49:35 10° NNE 01:55:06 87° ESE 01:57:49 32° SSW
IRS-1D 4.3 01:50:34 10° NNE 01:55:25 45° E 01:58:30 21° SSE
GEOS 3 Rocket 3.7 01:50:51 10° NE 01:56:17 79° NW 01:59:07 29° SW
Lacrosse 4 Rocket 3.5 01:53:39 12° W 01:56:31 21° NW 01:59:43 10° NNE
NPP 3.7 01:51:06 10° NNE 01:56:32 77° ESE 01:59:17 30° S
ADEOS II 3.0 01:52:54 10° NNE 01:57:54 42° E 02:01:25 18° SSE
COSMOS 2428 4.4 01:55:29 10° WNW 01:58:44 16° W 01:58:50 16° W
Cosmos 1892 Rocket 4.0 01:55:31 10° N 01:59:59 63° ENE 02:03:00 20° SSE
CZ-4B R/B 3.8 01:56:35 10° NNE 02:01:18 54° ESE 02:03:51 25° S
Meteor 2-5 Rocket 3.6 01:56:53 10° NNW 02:02:34 79° W 02:05:59 24° S
KORONAS-FOTON 4.1 02:00:22 10° NNW 02:04:01 45° W 02:04:31 42° WSW
SL-24 R/B 4.5 02:01:32 24° SSE 02:04:30 77° E 02:09:36 10° N
Cosmos 923 Rocket 4.0 02:05:48 10° NNW 02:11:07 66° WSW 02:14:41 21° S
Cosmos 158 Rocket 4.0 02:05:48 10° NNW 02:11:11 83° WSW 02:16:10 12° SSE
Cosmos 2026 Rocket 4.4 02:05:54 10° NNW 02:11:37 44° W 02:14:27 27° SW
Cosmos 2279 Rocket 3.9 02:09:05 26° SSW 02:12:45 83° W 02:19:00 10° N
Cosmos 2263 Rocket 4.3 02:09:12 10° SE 02:12:58 19° E 02:16:44 10° ENE
Cosmos 1626 2.0 02:11:21 10° NNW 02:15:05 80° W 02:16:34 35° S
Cosmos 2297 Rocket 2.3 02:12:41 28° SW 02:15:41 69° WNW 02:21:22 10° NNE
Cosmos 2219 3.5 02:14:36 26° SW 02:17:40 59° NW 02:23:15 10° NNE
Cosmos 1766 3.3 02:17:11 38° SSW 02:18:32 66° WNW 02:22:25 10° N
Cosmos 2098 Rocket 3.7 02:14:18 10° N 02:19:00 74° E 02:24:56 10° SSE
Cosmos 1634 Rocket 4.4 02:16:01 26° SW 02:19:23 50° WNW 02:25:27 10° N
Meteor 1-22 Rocket 4.1 02:19:29 24° S 02:22:46 83° E 02:28:07 10° NNE
Meteor 1-28 Rocket 4.0 02:20:56 10° SSE 02:24:37 52° ENE 02:28:20 10° N
Cosmos 2237 Rocket 3.3 02:20:54 10° NW 02:25:15 23° WSW 02:26:18 22° WSW
Cosmos 1603 4.4 02:25:03 10° NNW 02:30:44 57° NE 02:36:22 10° SE
H-2A R/B 4.0 02:28:12 10° ESE 02:31:44 28° ENE 02:35:16 10° N
Cosmos 1470 3.2 02:32:06 20° S 02:34:42 61° E 02:38:40 10° NNE
Cosmos 1544 Rocket 4.0 02:37:11 16° S 02:40:43 62° E 02:45:10 10° NNE
Cosmos 1607 4.3 02:35:48 10° NW 02:41:53 45° WSW 02:47:58 10° S
COBE Rocket 4.1 02:39:56 22° SSW 02:42:34 46° W 02:47:04 10° NNW
FALCON 9 DEB 3.3 02:43:27 10° WNW 02:46:51 50° SSW 02:50:13 10° SE
SL-16 R/B 3.5 02:45:05 20° SW 02:48:04 28° W 02:53:22 10° NW
USA 215 3.4 02:42:33 10° ENE 02:49:05 66° SE 02:54:08 18° SW
IRS-P3 4.2 02:45:52 10° NNE 02:51:16 86° ESE 02:55:46 15° SSW
ATLAS 3B R/B 4.3 02:45:35 10° WNW 02:51:18 29° NNW 02:57:08 10° NE
Resurs 1-4 Rocket 3.0 02:47:19 10° N 02:52:07 35° WNW 02:55:29 17° WSW
Okean 1-7 Rocket 3.8 02:48:20 10° NNW 02:52:39 53° W 02:55:58 16° SSW
SL-14 R/B 4.0 02:49:26 10° NNW 02:53:01 34° W 02:54:46 22° SW
Cosmos 1943 3.5 02:51:19 10° NNW 02:56:57 72° ENE 03:02:34 10° SE
Cosmos 1602 Rocket 3.9 02:53:12 10° N 02:57:35 66° ENE 03:01:53 10° SSE
Cosmos 2266 Rocket 4.2 02:55:43 10° NNW 03:01:56 56° W 03:08:02 10° SSW
Cosmos 2227 Rocket 3.0 03:00:53 15° WSW 03:05:13 40° NW 03:10:33 10° NNE
CBERS-1 4.5 03:05:41 10° N 03:10:36 48° WNW 03:14:39 15° SW
Meteor 1-21 Rocket 4.2 03:05:19 10° NNW 03:10:56 88° W 03:16:28 10° S
Cosmos 1758 3.4 03:09:52 15° SSW 03:13:06 64° WNW 03:17:07 10° N
Cosmos 1937 Rocket 3.5 03:09:43 14° SSW 03:14:23 87° WNW 03:19:45 10° NNE
CZ-2C R/B 3.7 03:12:20 10° NNE 03:16:07 46° E 03:19:47 10° S
ERS-2 2.8 03:12:33 10° SSE 03:16:08 57° ENE 03:19:45 10° N
ARIANE 5 R/B 2.6 03:12:26 10° NNE 03:17:41 81° WNW 03:22:55 10° SSW
CSL-04 DEB 4.3 03:14:06 10° SSE 03:18:00 88° WSW 03:21:59 10° NNW
NOSS 2-3 (E) 4.4 03:14:35 12° SSW 03:18:24 48° SE 03:23:18 10° NE
Meteor 2-14 Rocket 4.4 03:13:31 10° NNW 03:19:34 75° W 03:25:37 10° S
Cosmos 1726 2.1 03:16:22 10° S 03:20:00 90° SSW 03:23:43 10° N
SJ 16-02 2.3 03:17:05 14° WSW 03:20:21 34° WNW 03:24:24 10° N
Cosmos 1898 Rocket 3.7 03:16:03 14° SW 03:20:27 61° WNW 03:25:39 10° NNE
CZ-4B R/B 4.1 03:19:35 10° ESE 03:22:11 22° ENE 03:24:44 10° NNE
Nadezhda 2 Rocket 4.5 03:16:14 10° NNW 03:22:31 81° W 03:28:39 10° S
USA 267 3.3 03:16:43 10° SE 03:23:10 59° SW 03:29:38 10° WNW
CZ-4C R/B 2.8 03:22:38 10° SSE 03:25:52 88° ENE 03:29:12 10° NNW
NOSS 3-1 (C) 3.4 03:20:59 13° SW 03:26:00 88° SE 03:32:37 10° NE
Cosmos 2082 4.3 03:21:37 13° WSW 03:26:26 44° NW 03:31:49 10° NNE
Cosmos 1340 Rocket 3.3 03:24:07 13° SW 03:27:24 45° WNW 03:31:14 10° N
IDEFIX/ARIANE 42P 2.6 03:22:21 10° NNE 03:27:35 85° ESE 03:32:48 10° SSW
Cosmos 990 Rocket 4.4 03:24:17 13° SW 03:28:46 50° WNW 03:33:49 10° NNE
Cosmos 1626 Rocket 3.8 03:25:51 10° NNW 03:30:01 46° W 03:34:08 10° SSW
SL-4 R/B 3.2 03:30:22 13° WSW 03:31:18 14° SW 03:33:13 10° S
Cosmos 1908 4.1 03:27:58 10° S 03:31:46 52° E 03:35:36 10° NNE
Cosmos 1455 Rocket 4.0 03:28:31 13° SW 03:32:00 33° WNW 03:36:03 10° N
Cosmos 1461 3.4 03:29:10 12° WSW 03:33:06 59° NW 03:37:41 10° NE
Meteor 1-16 Rocket 4.4 03:28:20 10° S 03:33:41 73° E 03:39:13 10° NNE
SL-08 R/B 4.2 03:29:17 10° SSW 03:33:46 34° W 03:38:16 10° NNW
Cosmos 372 Rocket 4.3 03:28:47 10° SSW 03:33:57 69° ESE 03:39:11 10° NNE
Landsat 5 3.3 03:30:12 10° SSE 03:34:07 81° WSW 03:38:13 10° NNW
SL-16 R/B 3.6 03:30:45 10° WNW 03:34:30 18° W 03:38:14 10° SW
CZ-2D R/B 3.9 03:30:38 10° N 03:34:30 20° NW 03:38:23 10° W
CZ-2C R/B 3.8 03:30:22 10° NNE 03:34:33 34° E 03:38:45 10° SSE
Cosmos 1953 2.3 03:31:07 10° SSW 03:35:08 71° WNW 03:39:12 10° N
ATLAS CENTAUR R/B 3.8 03:32:53 10° SSE 03:35:32 17° ESE 03:38:05 10° ENE
CZ-2D R/B 3.4 03:32:25 10° N 03:36:30 68° WNW 03:40:27 10° SSW
ADEOS II 3.0 03:32:48 10° N 03:37:32 35° WNW 03:42:15 10° SW
NOSS 2-3 (D) 4.0 03:37:52 10° SSW 03:42:09 68° SE 03:47:18 10° NE
Cosmos 1758 Rocket 3.5 03:44:20 10° NNW 03:48:39 76° W 03:52:57 10° S
Cosmos 2228 3.7 03:46:10 10° S 03:50:27 58° E 03:54:48 10° NNE
Meteor 2-10 4.4 03:45:54 10° SSW 03:51:17 57° WNW 03:56:53 10° N
Cosmos 1328 3.8 03:47:30 10° NNW 03:51:31 76° W 03:55:30 10° S
SAR-Lupe-4 4.4 03:50:43 10° SSE 03:54:14 57° ENE 03:57:46 10° N
Cosmos 2263 Rocket 2.2 03:50:36 10° SSW 03:56:12 83° WNW 04:01:48 10° NNE
Cosmos 1703 3.5 03:55:20 10° NNW 03:59:13 53° W 04:03:05 10° S
USA 229 DEB 3.8 03:53:22 10° SW 03:59:57 74° NW 04:06:58 10° NE
USA 229 3.8 03:53:28 10° SW 04:00:02 74° NW 04:07:02 10° NE
Cosmos 2297 Rocket 4.0 03:56:45 10° W 04:00:49 20° NW 04:04:54 10° NNE
